St. Charles, IL

2:46 PM CST on December 16, 2017 (GMT -0600)
Saint Charles County Smartt

Weather History for KSET - November, 2012

Change the Weather History Date:

Saturday, November 17, 2012

  Actual Average (KSTL) Record (KSTL)
Temperature  
Mean Temperature 44 °F -  
Max Temperature 57 °F 55 °F 83 °F (2016)
Min Temperature 30 °F 36 °F 6 °F (1959)
Degree Days  
Heating Degree Days 22    
Moisture  
Dew Point 32 °F    
Average Humidity 76    
Maximum Humidity 96    
Minimum Humidity 37    
Precipitation  
Precipitation 0.00 in - - ()
Sea Level Pressure  
Sea Level Pressure 30.46 in    
Wind  
Wind Speed 4 mph (ESE)    
Max Wind Speed 12 mph    
Max Gust Speed -    
Visibility 6 miles    
Events      
Averages and records for this station are not official NWS values.
T = Trace of Precipitation, MM = Missing Value Source: NWS Daily Summary

Daily Weather History Graph

Daily Weather History Graph

Search for Another Location

Airport or City:

Trip Planner

Search our weather history database for the weather conditions in past years. The results will help you decide how hot, cold, wet, or windy it might be!

Date:

Astronomy

Nov. 17, 2012 Rise Set
Actual Time 6:47 AM CST 4:46 PM CST
Civil Twilight 6:18 AM CST 5:14 PM CST
Nautical Twilight 5:46 AM CST 5:47 PM CST
Astronomical Twilight 5:14 AM CST 6:18 PM CST
Moon 10:31 AM CST (11/17) 8:55 PM CST (11/17)
Length of Visible Light 10h 56m
Length of Day
9h 58m
Waxing Crescent, 20% of the Moon is Illuminated
Nov 17
Waxing Crescent
Nov 20
First Quarter
Nov 28
Full
Dec 6
Last Quarter
Dec 13
New

Hourly Weather History & Observations

Time (CST) Temp. Windchill Dew Point Humidity Pressure Visibility Wind Dir Wind Speed Gust Speed Precip Events Conditions
12:54 AM 36.0 °F 32.1 °F 32.0 °F 86% 30.46 in 8.0 mi East 4.6 mph - N/A   Clear
1:54 AM 33.1 °F 30.0 °F 30.0 °F 89% 30.46 in 7.0 mi ENE 3.5 mph - N/A   Clear
2:54 AM 32.0 °F 28.7 °F 30.0 °F 92% 30.47 in 5.0 mi ENE 3.5 mph - N/A   Clear
3:54 AM 33.1 °F 30.0 °F 32.0 °F 96% 30.48 in 5.0 mi ENE 3.5 mph - N/A   Clear
4:34 AM 32.0 °F - 30.2 °F 93% 30.48 in 1.8 mi Calm Calm - N/A   Clear
4:43 AM 33.8 °F - 30.2 °F 87% 30.48 in 3.0 mi Calm Calm - N/A   Clear
4:54 AM 30.9 °F - 28.9 °F 92% 30.49 in 4.0 mi Calm Calm - N/A   Clear
5:05 AM 32.0 °F - 28.4 °F 87% 30.48 in 1.8 mi Calm Calm - N/A   Clear
5:39 AM 30.2 °F 20.8 °F 28.4 °F 93% 30.47 in 2.0 mi ESE 11.5 mph - N/A   Clear
5:47 AM 32.0 °F 23.0 °F 28.4 °F 87% 30.47 in 4.0 mi ESE 11.5 mph - N/A   Clear
5:54 AM 33.1 °F 26.1 °F 30.0 °F 89% 30.48 in 5.0 mi ESE 8.1 mph - N/A   Clear
6:54 AM 32.0 °F - 28.0 °F 85% 30.50 in 5.0 mi Calm Calm - N/A   Clear
7:54 AM 34.0 °F 28.0 °F 30.9 °F 89% 30.51 in 3.0 mi East 6.9 mph - N/A   Clear
8:54 AM 41.0 °F - 33.1 °F 73% 30.53 in 5.0 mi Calm Calm - N/A   Haze
9:54 AM 46.0 °F - 35.1 °F 66% 30.52 in 6.0 mi Calm Calm - N/A   Haze
10:54 AM 50.0 °F - 35.1 °F 57% 30.51 in 7.0 mi SSE 4.6 mph - N/A   Clear
11:54 AM 53.1 °F - 34.0 °F 48% 30.48 in 8.0 mi South 5.8 mph - N/A   Clear
12:54 PM 54.0 °F - 35.1 °F 49% 30.45 in 8.0 mi Variable 3.5 mph - N/A   Clear
1:54 PM 57.0 °F - 30.9 °F 37% 30.43 in 10.0 mi ESE 8.1 mph - N/A   Clear
2:54 PM 55.9 °F - 30.0 °F 37% 30.42 in 10.0 mi East 9.2 mph - N/A   Clear
3:54 PM 54.0 °F - 33.1 °F 45% 30.42 in 10.0 mi ESE 8.1 mph - N/A   Clear
4:54 PM 48.0 °F - 34.0 °F 58% 30.41 in 10.0 mi ESE 8.1 mph - N/A   Clear
5:54 PM 43.0 °F 37.7 °F 34.0 °F 71% 30.40 in 8.0 mi ESE 9.2 mph - N/A   Clear
6:54 PM 39.9 °F 33.9 °F 33.1 °F 77% 30.40 in 8.0 mi East 9.2 mph - N/A   Clear
7:54 PM 43.0 °F - 34.0 °F 71% 30.42 in 7.0 mi Calm Calm - N/A   Clear
8:54 PM 41.0 °F 38.0 °F 37.0 °F 86% 30.42 in 7.0 mi East 4.6 mph - N/A   Clear
9:54 PM 36.0 °F 29.6 °F 33.1 °F 89% 30.42 in 7.0 mi East 8.1 mph - N/A   Clear
10:54 PM 34.0 °F 26.6 °F 30.0 °F 85% 30.42 in 6.0 mi East 9.2 mph - N/A   Clear
11:54 PM 34.0 °F 28.0 °F 28.9 °F 82% 30.41 in 7.0 mi ESE 6.9 mph - N/A   Clear